Retour au catalogue

STARLINK-11579

ActifCommunicationsVLEO
NORAD 63143·PAYLOAD·🇺🇸 United States

Lancé Mar 3, 2025 depuis Cape Canaveral Space Force Station

Loading…

Prochains Passages (prochaines 24 heures)

TLE

FraisSource: CelesTrak SupGP

Époque: Sep 15, 2026, 03:15 UTC

1 63143C 25043M   26258.13590278 -.00028992  00000+0 -22526-3 0  2588
2 63143  43.0005 188.4521 0001437 266.8061 356.2054 15.70844578    19

Suivez STARLINK-11579 en temps réel avec AllMySat

Download on the App Store